Location: Columbia
(38.9520°N, 92.3340°W)
Time: 20:20:13
(UTC-05:00)

SL-08 RB Rocket - Visible Passes

Search period start: 26 May 2018 00:00
Search period end: 05 June 2018 00:00
Orbit: 648 x 684 km, 97.9° (Epoch: 26 May)

Date Brightness Start Highest point End Pass type
(mag) Time Alt. Az. Time Alt. Az. Time Alt. Az.
26 May 5.6 20:53:54 10° E 20:56:26 15° ENE 20:58:59 10° NNE visible
26 May 4.3 22:30:45 27° SSW 22:33:00 52° W 22:37:28 10° NNW visible
27 May 4.7 21:24:27 14° SE 21:27:39 30° ENE 21:31:39 10° N visible
27 May 5.5 23:02:34 17° SW 23:04:40 24° W 23:08:22 10° NW visible
28 May 3.7 21:56:17 23° SSE 21:59:01 66° ENE 22:03:35 10° N visible
28 May 6.3 23:35:22 10° WSW 23:36:30 11° W 23:37:38 10° WNW visible
29 May 4.2 22:28:08 26° SSW 22:30:33 56° W 22:35:04 10° NNW visible
30 May 4.8 21:21:49 12° SE 21:25:14 29° ENE 21:29:11 10° N visible
30 May 5.5 22:59:57 17° SW 23:02:13 25° W 23:06:01 10° NW visible
31 May 3.8 21:53:40 21° SSE 21:56:36 62° ENE 22:01:09 10° N visible
31 May 6.3 23:32:28 10° WSW 23:34:02 12° W 23:35:37 10° WNW visible
01 Jun 4.1 22:25:30 24° S 22:28:06 59° W 22:32:40 10° NNW visible
02 Jun 4.9 21:19:13 11° SE 21:22:49 27° ENE 21:26:42 10° NNE visible
02 Jun 5.4 22:57:20 17° SW 22:59:46 27° W 23:03:40 10° NW visible
03 Jun 3.9 21:51:03 19° SSE 21:54:10 59° ENE 21:58:42 10° N visible
03 Jun 6.2 23:29:39 10° WSW 23:31:34 12° W 23:33:30 10° WNW visible
04 Jun 4.0 22:22:54 23° S 22:25:40 63° W 22:30:16 10° NNW visible
